Location: Unspecified
(0.0000°N, 0.0000°E)
Time: 15:30:02
(UTC-05:00)

Daily predictions for brighter satellites

Satellite Brightness Start Highest point End
(mag) Time Altitude Azimuth Time Altitude Azimuth Time Altitude Azimuth
BREEZE-M R/B 4.4 13:04:30 10° SSW 13:07:41 66° ESE 13:21:14 10° NE
ARIANE 5 R/B 2.2 13:22:00 10° W 13:27:16 54° N 13:29:16 10° ENE
Cosmos 2369 Rocket 3.6 13:24:43 10° SE 13:28:18 17° ESE 13:31:51 10° ENE
Cosmos 1271 Rocket 3.9 13:25:18 10° SSE 13:28:29 23° E 13:31:40 10° NE
COSMOS 2406 3.2 13:24:08 10° N 13:29:46 69° ENE 13:35:24 10° SSE
Cosmos 1707 2.9 13:27:37 10° N 13:31:27 79° W 13:35:18 10° S
SPOT 3 Rocket 4.1 13:27:14 10° S 13:32:24 64° WSW 13:37:32 10° NNW
SWIFT 4.4 13:32:31 10° NNW 13:35:13 16° NNE 13:37:55 10° ENE
Cosmos-2242 3.9 13:31:56 10° SSE 13:35:33 27° E 13:39:08 10° NE
Cosmos 1544 3.6 13:37:03 10° SSW 13:40:39 64° W 13:44:14 10° N
Geosat 4.1 13:36:38 10° NE 13:41:31 55° ESE 13:46:24 10° S
Cosmos 1758 3.5 13:41:27 10° S 13:45:24 75° W 13:49:21 10° N
Okean 3 Rocket 4.5 13:43:30 10° NNE 13:47:14 27° E 13:51:01 10° SE
ARIANE 5 DEB (SYLDA) 3.1 13:42:35 10° W 13:47:27 42° SSW 13:49:00 16° ESE
FREGAT/IRIS 3.7 13:45:00 10° SE 13:47:37 26° E 13:50:13 10° NNE
CZ-4C R/B 1.9 13:43:37 10° SSW 13:48:33 59° ESE 13:53:28 10° NE
deb Ariane 3.1 13:45:49 10° W 13:48:33 81° N 13:51:54 15° E
Cosmos 1953 2.6 13:46:16 10° S 13:50:19 72° W 13:54:22 10° N
ARIANE 5 DEB (SYLDA) 4.1 13:26:54 10° W 13:51:22 81° N 13:55:57 16° E
GP-B 4.4 13:51:39 10° SE 13:54:51 20° E 13:58:01 10° NE
Cosmos 2100 Rocket 4.2 13:50:08 10° SSE 13:56:06 47° E 14:02:06 10° NNE
Tiangong 2 3.5 13:53:58 10° W 13:56:27 22° NW 13:58:55 10° N
USA 215 3.3 13:50:51 10° NE 13:57:22 87° NW 14:03:55 10° SW
Meteosat 1 Rocket2 4.1 13:53:34 10° SW 13:59:08 37° SSE 14:01:26 22° ESE
Cosmos 1378 4.3 13:57:33 10° NNW 14:01:07 45° W 14:04:41 10° SSW
ALOS 2.8 13:57:04 10° SE 14:01:19 35° ENE 14:05:33 10° NNE
Longmarch 3A Rocket 3.7 14:02:32 10° NNW 14:05:43 31° NE 14:09:46 21° E
Resurs 01 Rocket 3.2 14:09:15 18° NE 14:09:15 18° NE 14:11:09 10° NNE
Orbus 7S 3.4 14:05:31 10° WNW 14:08:21 88° SSW 14:11:42 22° ESE
METEOR-M 4.2 14:04:57 10° S 14:10:17 82° WSW 14:15:37 10° NNW
Palapa 6 Rocket 4.3 14:06:11 10° WNW 14:13:54 72° SSW 14:18:10 24° SE
Cosmos 1733 3.5 14:15:28 10° S 14:19:17 67° W 14:23:05 10° N
SL-27 R/B 3.7 14:17:37 10° NNW 14:21:06 44° WSW 14:24:36 10° S
Cosmos 1802 Rocket 3.9 14:16:09 10° S 14:22:14 64° E 14:28:16 10° NNE
ARIANE 44L R/B 2.1 14:21:23 10° W 14:23:28 68° WNW 14:23:28 68° WNW
Spot 2 Rocket 4.1 14:28:36 36° NE 14:28:36 36° NE 14:32:26 10° N
SL-8 R/B 4.0 14:23:38 10° SW 14:28:25 64° NW 14:31:25 22° NNE
Ariane 42L R/B 3.6 14:27:49 10° NW 14:28:59 19° NNW 14:28:59 19° NNW
Cosmos 2123 Rocket 4.4 14:23:56 10° NNW 14:30:05 62° W 14:36:12 10° S
Cosmos 1470 4.1 14:26:38 10° SSW 14:30:24 41° W 14:34:09 10° NNW
CZ-2C R/B 4.4 14:30:04 10° NNW 14:33:25 52° W 14:47:45 10° S
Cosmos 468 4.5 14:28:18 10° N 14:33:27 57° ENE 14:34:14 51° ESE
FengYun 1-2 T 4.1 14:29:15 10° SSE 14:34:46 75° ENE 14:40:18 10° N
Cosmos 1459 Rocket 4.2 14:30:29 10° S 14:36:48 72° W 14:43:01 10° N
Meteor 1-16 Rocket 4.1 14:32:44 10° S 14:38:25 80° E 14:44:14 10° N
Helios 1B rocket 3.1 14:36:53 10° N 14:40:52 54° WNW 14:44:53 10° SSW
Meteor 2-17 Rocket 4.3 14:35:16 10° S 14:41:26 84° E 14:47:34 10° N
Cosmos 2061 Rocket 4.3 14:36:19 10° S 14:42:37 71° W 14:48:57 10° N
Cosmos 2082 Rocket 3.7 14:40:55 10° N 14:42:56 21° NNE 14:42:56 21° NNE
Cosmos 1842 Rocket 3.6 14:42:49 10° S 14:47:17 76° W 14:51:42 10° N
ARIANE 44L R/B 3.8 14:47:27 10° WSW 14:50:57 54° S 14:52:22 46° SE
Spelda 4.0 14:48:22 10° WSW 14:49:58 24° WSW 14:49:58 24° WSW
GOES 2 Rocket 4.0 14:43:31 10° SW 14:51:44 68° SSE 14:52:29 63° ESE
ATLAS 3B R/B 3.0 14:44:57 10° S 14:51:47 51° SE 14:51:47 51° SE
FALCON 9 R/B 3.7 14:51:43 10° WNW 14:53:22 13° NW 14:53:47 12° NW
ARIANE 5 R/B 3.5 14:53:06 10° W 14:54:06 27° WNW 14:54:06 27° WNW
DELTA-4 R/B 4.0 14:56:07 10° W 14:58:22 29° WSW 14:58:22 29° WSW
SL-19 R/B 4.5 15:03:39 78° NE 15:03:39 78° NE 15:09:57 10° NNW
Milstar 3 3.5 15:01:56 10° WSW 15:08:42 45° NNW 15:10:23 38° N
Cosmos 2369 Rocket 3.8 15:07:01 10° SW 15:12:02 33° WNW 15:17:01 10° NNW
Ariane H10+ 3.9 15:18:01 10° WNW 16:04:35 - E 15:21:01 61° NW
Cosmos 1943 Rocket 4.1 15:24:12 10° SSW 15:26:03 21° SW 15:26:03 21° SW
Ariane 42P Rocket 4.3 22:31:44 72° ESE 22:31:44 72° ESE 22:55:24 10° E
ATLAS 2AS CENTAUR R/B 4.1 22:31:40 25° SSE 22:34:26 33° ESE 22:40:52 10° NE
Cosmos 1844 Rocket 4.3 22:39:07 22° NNE 22:41:32 31° ENE 22:46:23 10° SE
ASC 2 Rocket 4.0 23:05:58 57° SSE 23:05:58 57° SSE 23:11:55 10° ESE
Centaur AC-122 4.2 23:07:20 65° NW 23:08:19 84° NNE 23:13:49 10° ESE
Okean-O 3.7 23:04:21 10° NNE 23:07:24 41° NE 23:07:24 41° NE
Centaur D AC-29 4.2 23:06:47 18° SW 23:12:04 23° S 23:16:30 10° SE
ATLAS CENTAUR R/B 3.8 23:08:20 10° SSE 23:12:19 26° ESE 23:16:15 10° ENE
Ariane H10 3.7 23:16:34 43° SW 23:18:23 55° SSE 23:42:48 10° E
Cosmos 1603 3.7 23:18:27 30° S 23:21:19 77° ESE 23:26:55 10° NNE
Atlas 2A Centaur Rocket 3.9 23:27:39 14° E 23:27:39 14° E 23:28:04 10° E
NOSS 2-3 (C) 3.5 23:27:14 76° NW 23:27:14 76° NW 23:31:44 10° NNE
ASTRO E2 3.1 23:30:55 53° NNE 23:31:15 55° NNE 23:35:11 10° ESE
Cosmos 1606 Rocket 4.3 23:27:27 10° N 23:31:46 52° E 23:36:05 10° SSE
Cosmos 783 Rocket 4.3 23:31:54 37° SSW 23:33:56 71° WNW 23:39:07 10° N
Intelsat 5-3 Rocket 3.7 23:36:15 17° NE 23:36:15 17° NE 23:37:08 10° NE
Delta 7925 Rocket 4.3 23:33:43 42° WSW 23:35:23 51° SSW 23:43:06 10° SE
SL-8 Rocket 3.9 23:30:57 10° N 23:37:06 89° E 23:43:16 10° S
HETE-2 4.5 23:41:03 63° WSW 23:41:40 81° S 23:45:54 10° E
Cosmos 1066 Rocket 4.1 23:38:46 10° S 23:44:35 81° W 23:50:15 10° N
Delta 202 3.5 23:48:39 33° WSW 23:51:17 84° NNW 23:56:32 10° ENE
Atlas Centaur 2 3.6 23:54:44 13° NW 23:54:45 13° NW 23:56:46 10° N
